Погода в Верхнечусовских Городки

Россия / Пермский край     58°10′10″N   57°06′21″E
темп.,
°C
ветер,
м/с
пор.,
м/с
влажн.,
%
обл.,
%
осадки,
мм/ч
давл.,
гПа
погр.,
м
21 января, пт
пт2123:00−8ююз41293100 0.4 1016572
02:00−8ююз41292100 0.2 1017589
05:00−9ююз41291100 0.2 1017561
08:00−9ююз4129194 0.0 1018509
11:00−9ююз4129190 0.0 1019513
14:00−8ююз4118982 0.0 1020524
17:00−10ююз379393 0.0 1022239
20:00−11ююз289576 0.0 1023259
22 января, сб
сб2223:00−15ю269871 0.1 1025115
02:00−17ююв1110086 0.0 102619
05:00−18юв11100100 0.1 102714
08:00−19вюв1110091 0.0 102810
11:00−16ююв129898 0.1 102960
14:00−10юв1392100 0.0 1028193
17:00−13вюв119969 0.1 10299
20:00−17в1110080 0.0 10319
23 января, вс
вс2323:00−17в11100100 0.0 103210
02:00−17в1110076 0.0 103310
05:00−17в119963 0.0 103412
08:00−18в119951 0.0 10359
11:00−14вюв1295100 0.0 103641
14:00−8ююв1286100 0.0 1036148
17:00−10вюв1196100 0.0 103810
20:00−12вюв1197100 0.0 103910
24 января, пн
пн2423:00−11юв1197100 0.0 103911
02:00−10вюв1195100 0.0 104014
05:00−10ююз1195100 0.0 104030
08:00−9ю1196100 0.1 104044
11:00−8ююз1395100 0.3 1040108
14:00−6юз2494100 0.5 1039267
17:00−7ююз2696100 1.2 1038292
20:00−7юз2796100 0.9 1037325
25 января, вт
вт2523:00−8юз2796100 2.2 1036299
02:00−9зюз279696 0.4 1036198
05:00−12зюз129992 0.5 103642
08:00−14юз1199100 0.1 103517
11:00−12зюз1295100 0.1 1035109
14:00−9зюз2392100 0.0 1035281
17:00−12ююз1198100 0.1 10359
20:00−14юз1198100 0.0 103511